weather.gov     
National Weather Service

Regional Weather Roundup
NWS Homepage
This page is being discontinued on March 12, 2014.
The same data is available at this site. Please update your bookmarks.
Thank you, and we apologize for the inconvenience.
Please send an email to SR-SRH.Webmaster@noaa.gov with any concerns.


Current Version
Previous Version:    01  02  03  04  05  06  07  08  09  10  11  12  13  14  15  16  17  18  19  20  21  22  23  24  25  26  27  
[Printable]
055
ASUS42 KTBW 191810
RWRFL
FLORIDA REGIONAL WEATHER ROUNDUP
NATIONAL WEATHER SERVICE TAMPA BAY RUSKIN FL
100 PM EST FRI DEC 19 2014

NOTE: "FAIR" INDICATES FEW OR NO CLOUDS BELOW 12,000 FEET WITH NO
SIGNIFICANT WEATHER AND/OR OBSTRUCTIONS TO VISIBILITY.


FLZ001>010-012>015-112-114-115-191900-
PANHANDLE FLORIDA

CITY           SKY/WX    TMP DP  RH WIND       PRES   REMARKS
PENSACOLA      LGT RAIN  50  46  86 E6        30.12F
PENSACOLA NAS  PTSUNNY   51  48  89 E13       30.11F
MILTON NAS     CLOUDY    50  49  96 E8        30.13F
CRESTVIEW      LGT RAIN  50  46  86 SE5       30.16F
DUKE FIELD     CLOUDY    50  45  81 NE3       30.15F
VALPARAISO     MOSUNNY   51  46  83 NE5       30.15F
MARY ESTHER    PTSUNNY   51  45  78 E8        30.11F
TRI COUNTY     FAIR      58  38  47 VRB3      30.16F
PANAMA CITY    LGT RAIN  51  46  83 CALM      30.15F
TYNDALL AFB    LGT RAIN  50  47  87 N6        30.17F
APALACHICOLA   CLOUDY    62  45  53 NE3       30.16R

STATION/POSITION SKY/WX   TEMP    WIND        PRES    WAVE   SWELL
                          AIR SEA DIR/SP/G            HT/PER HT/PER
                          (F)     (DEG/KT/KT) (MB)    (FT/S) (FT/S)
30.1N   87.6W              57 68   60/ 17/ 19 1018.7F   3/ 4
29.2N   88.2W              66 75   70/ 21/ 25 1018.2F   5/ 5
28.7N   86.0W              67 76   70/ 10/ 14 1020.0    2/ 4   2/ 7
PANAMA CITY BEAC           49 62   20/  4/  5 1021.4F
CAPE SAN BLAS    NOT AVBL
TOWER C                    61      70/  7/  7 1020.5R
28.5N   84.5W              65 71   70/  8/ 10 1019.8F   1/ 3

$$
FLZ011-016>038-118-127-128-134-139-239-191900-
NORTH FLORIDA

CITY           SKY/WX    TMP DP  RH WIND       PRES   REMARKS
MARIANNA       CLOUDY    57  39  51 NW3       30.17S
TALLAHASSEE    PTSUNNY   63  36  36 CALM      30.14F
PERRY          MOSUNNY   66  37  33 E3        30.12F
CROSS CITY       N/A     68  37  32 E5        30.10F
LAKE CITY      FAIR      63  36  36 N3        30.11F
GAINESVILLE    MOSUNNY   67  34  29 NE3       30.11F
MAYPORT NAS    PTSUNNY   64  47  53 NE7       30.12F
JACKSONVILLE   PTSUNNY   67  36  31 NE5       30.11F
JAX NAS        PTSUNNY   70  34  26 CALM      30.12F
JAX CRAIG      PTSUNNY   67  32  27 VRB3      30.11F
JAX CECIL      SUNNY     66  32  28 CALM      30.12F
FERNANDINA BEA FAIR      70  41  35 CALM      30.11F
ST AUGUSTINE   MOSUNNY   66  47  50 E5        30.12F

STATION/POSITION SKY/WX   TEMP    WIND        PRES    WAVE   SWELL
                          AIR SEA DIR/SP/G            HT/PER HT/PER
                          (F)     (DEG/KT/KT) (MB)    (FT/S) (FT/S)
SHELL POINT                59     110/  3/  5   N/A
KEATON BEACH               58     270/  6/  7 1019.8F
CEDAR KEY                  58     120/  4/  4 1020.9F
FERNANDINA                 59 57   10/  3/  5 1019.4F
30.7N   81.3W                 62                N/A     1/10
MAYPORT                    61 61   60/  5/  6   N/A
31.4N   80.9W              56 58  340/  4/  6 1020.0F   1/10   2/10
ST AUGUSTINE               62     360/  4/  5 1020.1F

$$
FLZ040-043>046-052-053-057-058-063-144-191900-
INTERIOR CENTRAL FLORIDA

CITY           SKY/WX    TMP DP  RH WIND       PRES   REMARKS
OCALA          SUNNY     66  37  34 NE6       30.11F
THE VILLAGES     N/A     66  37  34 NE5       30.01F
LEESBURG       MOSUNNY   66  43  43 SE5       30.11F
SANFORD        PTSUNNY   68  44  42 N3        30.10F
ORLANDO EXEC   PTSUNNY   68  39  34 N6        30.10F
ORLANDO INTL   PTSUNNY   71  43  36 CALM      30.10F
KISSIMMEE      SUNNY     70  46  43 CALM      30.10F
WINTER HAVEN   MOSUNNY   70  48  45 VRB3      30.10F
LAKELAND       MOSUNNY   70  50  49 E5        30.09F
BARTOW         PTSUNNY   70  48  46 E7        30.10F
OKEECHOBEE     SUNNY     72  50  46 CALM      30.09F

$$
FLZ041-047-054-059-064-141-147-191900-
EAST CENTRAL FLORIDA

CITY           SKY/WX    TMP DP  RH WIND       PRES   REMARKS
ORMOND BEACH   SUNNY     64  50  59 CALM      30.11F
DAYTONA BEACH  PTSUNNY   69  51  52 NE5       30.10F
DELAND         MOCLDY   N/A N/A N/A E6        30.11F
NEW SMYRNA BEA SUNNY     66  54  63 CALM      30.12F
JFK SPACE CTR  MOSUNNY   69  53  57 NE5       30.10F
CAPE CANAVERAL MOSUNNY   70  51  52 NE5       30.08F
PATRICK AFB    MOSUNNY   69  48  47 NW5       30.09F
MELBOURNE      MOSUNNY   72  47  40 NE7       30.09F
VERO BEACH     MOSUNNY   72  56  57 NE8       30.09F
FT PIERCE      SUNNY     73  58  59 NE8       30.08F
STUART         MOSUNNY   72  57  60 NE5       30.09F

STATION/POSITION SKY/WX   TEMP    WIND        PRES    WAVE   SWELL
                          AIR SEA DIR/SP/G            HT/PER HT/PER
                          (F)     (DEG/KT/KT) (MB)    (FT/S) (FT/S)
28.5N   80.2W              69 76  350/  6/  8 1019.9F
28.9N   78.5W              71 76  350/  4/  6 1019.1F   2/10   2/10
TRIDENT PIER               70 65  130/  3/  5 1018.7F
28.4N   80.5W                 66                N/A     1/11
27.6N   80.2W                 76                N/A     2/11

$$
FLZ050-056-061-142-242-148-248-149-249-151-251-155-255-
160-260-191900-
WEST CENTRAL FLORIDA

CITY           SKY/WX    TMP DP  RH WIND       PRES   REMARKS
CRYSTAL RIVER  FAIR      66  41  39 E3        30.11F
INVERNESS      FAIR      68  43  40 CALM      30.11F
BROOKSVILLE    MOSUNNY   66  48  52 VRB3      30.11F
ZEPHYRHILLS    FAIR      70  45  40 CALM      30.10F
CLEARWATER     MOSUNNY   68  51  54 NE6       30.09F
TAMPA INTL     PTSUNNY   71  47  42 VRB3      30.10F
TAMPA EXEC     MOSUNNY   72  50  46 SE3       30.10F
PLANT CITY     MOSUNNY   72  46  40 E5        30.11F
MACDILL AFB    SUNNY     72  51  48 E5        30.10F
PETER O KNIGHT MOSUNNY   72  52  49 S5        30.10F
ST PETERSBURG  MOSUNNY   68  52  56 NE3       30.08F
SARASOTA       MOSUNNY   72  49  44 VRB5      30.07F
VENICE         FAIR      72  50  46 CALM      30.08F

STATION/POSITION SKY/WX   TEMP    WIND        PRES    WAVE   SWELL
                          AIR SEA DIR/SP/G            HT/PER HT/PER
                          (F)     (DEG/KT/KT) (MB)    (FT/S) (FT/S)
CEDAR KEY                  58     120/  4/  4 1020.9F
28.5N   84.5W              65 71   70/  8/ 10 1019.8F   1/ 3
27.3N   84.3W                 76                N/A     1/ 3
CLEARWATER BEACH           63 63  310/  6/  7 1019.0F
MIDDLE TAMPA BAY           62      10/  7/  8 1019.3F
VENICE                     67 64  250/  6/  6 1018.2F

$$
FLZ066-069-070-075>078-162-262-165-265-191900-
SOUTHWEST FLORIDA AND KEYS

CITY           SKY/WX    TMP DP  RH WIND       PRES   REMARKS
PUNTA GORDA    SUNNY     72  49  44 VRB6      30.09F
FT MYERS       SUNNY     73  49  42 SE3       30.06F
SOUTHWEST INTL SUNNY     74  48  39 CALM      30.06F
NAPLES         SUNNY     74  53  48 CALM      30.05F
MARCO ISLAND   PTCLDY    75  55  50 SW7       30.05F
MARATHON       SUNNY     73  64  73 NE8       30.06F
KEY WEST NAS   SUNNY     75  61  61 NE10      30.05F
KEY WEST INTL  SUNNY     75  61  61 NE10      30.06F

STATION/POSITION SKY/WX   TEMP    WIND        PRES    WAVE   SWELL
                          AIR SEA DIR/SP/G            HT/PER HT/PER
                          (F)     (DEG/KT/KT) (MB)    (FT/S) (FT/S)
VENICE                     67 64  250/  6/  6 1018.2F
NAPLES                     68 72  310/  6/  7 1018.3F
26.0N   85.6W              72 78  100/  8/ 12 1017.9F   2/ 7   2/ 7
DRY TORTUGAS               70      70/ 11/ 13 1018.8F
NW FL BAY                  71      70/  3/  3 1019.3F
SAND KEY                   70      50/ 11/ 13 1017.7F
SOMBRERO KEY               70      30/ 10/ 10 1018.1F
LONG KEY                   69 69   30/  7/  8 1019.5F
MOLASSES REEF              73 77  100/ 10/ 11 1017.7F

$$
FLZ067-068-071>074-168-172>174-191900-
SOUTHEAST FLORIDA

CITY           SKY/WX    TMP DP  RH WIND       PRES   REMARKS
W PALM BEACH   PTSUNNY   78  58  49 VRB3      30.06F
FT LAUDER-EXEC MOSUNNY   77  59  53 N3        30.05F
FT LAUDERDALE  MOSUNNY   75  61  61 E6        30.05F
POMPANO BEACH  MOSUNNY   77  60  55 E7        30.06F
PEMBROKE PINES MOSUNNY   78  59  51 E9        30.07F
OPA LOCKA      MOSUNNY   76  59  55 NE3       30.06F
MIAMI          MOSUNNY   78  59  51 E5        30.06F
WEST KENDALL   SUNNY     76  59  55 E8        30.06F
HOMESTEAD      SUNNY     77  61  57 E7        30.06F

STATION/POSITION SKY/WX   TEMP    WIND        PRES    WAVE   SWELL
                          AIR SEA DIR/SP/G            HT/PER HT/PER
                          (F)     (DEG/KT/KT) (MB)    (FT/S) (FT/S)
PORT EVERGLADES            74      50/  5/  8 1017.8
VIRGINIA KEY               73 72   70/  7/  9 1018.5F
LAKE WORTH                 74 76   90/  2/  3 1018.0F
FOWEY ROCKS                73 75   80/  6/  7 1018.2F




U.S. Dept. of Commerce
NOAA National Weather Service
1325 East West Highway
Silver Spring, MD 20910
E-mail: w-nws.webmaster@noaa.gov
Page last modified: May 16, 2007
NATIONAL WEATHER SERVICE: for Safety, for Work, for Fun - FOR LIFE